VLG11W LEBL-LEIB

Flight info

Callsign VLG11W
Flight time 0h 42m
Altitude 19000
Route LARPA N859 TOLSO
Aircraft A319/M-SDE3FGHIRWY/LB1

Departure

Time 2026-05-07 14:39
Airport Josep Tarradellas Barcelona-El Prat Airport (LEBL)

Arrival

Time 2026-05-07 15:22
Airport Ibiza Airport (LEIB)
Time Latitude Longitude Altitude Speed Heading
2026-05-07 14:20 41.29239 2.08211 3 ft 0 kts 182°
2026-05-07 14:29 41.29248 2.08212 3 ft 2 kts 181°
2026-05-07 14:29 41.29264 2.08212 3 ft 2 kts 182°
2026-05-07 14:29 41.29281 2.08212 3 ft 2 kts 180°
2026-05-07 14:29 41.29297 2.08211 3 ft 2 kts 177°
2026-05-07 14:30 41.29313 2.08210 3 ft 2 kts 174°
2026-05-07 14:30 41.29330 2.08208 3 ft 2 kts 173°
2026-05-07 14:30 41.29346 2.08204 3 ft 2 kts 169°
2026-05-07 14:30 41.29362 2.08199 6 ft 2 kts 163°
2026-05-07 14:31 41.29378 2.08192 5 ft 2 kts 154°
2026-05-07 14:31 41.29391 2.08181 5 ft 1 kts 141°
2026-05-07 14:31 41.29400 2.08172 5 ft 1 kts 147°
2026-05-07 14:31 41.29400 2.08171 5 ft 0 kts 147°
2026-05-07 14:32 41.29392 2.08178 5 ft 5 kts 147°
2026-05-07 14:32 41.29338 2.08245 3 ft 14 kts 92°
2026-05-07 14:32 41.29358 2.08372 3 ft 18 kts 129°
2026-05-07 14:33 41.29218 2.08452 3 ft 26 kts 188°
2026-05-07 14:33 41.29013 2.08364 3 ft 36 kts 198°
2026-05-07 14:33 41.28760 2.08249 4 ft 36 kts 201°
2026-05-07 14:33 41.28651 2.08126 3 ft 20 kts 250°
2026-05-07 14:34 41.28587 2.07931 3 ft 24 kts 243°
2026-05-07 14:34 41.28514 2.07718 3 ft 26 kts 248°
2026-05-07 14:34 41.28438 2.07502 3 ft 18 kts 245°
2026-05-07 14:34 41.28432 2.07487 4 ft 2 kts 245°
2026-05-07 14:35 41.28426 2.07474 3 ft 3 kts 222°
2026-05-07 14:35 41.28399 2.07458 3 ft 10 kts 202°
2026-05-07 14:35 41.28355 2.07439 6 ft 0 kts 200°
2026-05-07 14:36 41.28354 2.07439 6 ft 1 kts 199°
2026-05-07 14:37 41.28291 2.07412 6 ft 19 kts 193°
2026-05-07 14:37 41.28270 2.07556 10 ft 0 kts 61°
2026-05-07 14:38 41.28331 2.07736 7 ft 68 kts 69°
2026-05-07 14:39 41.28654 2.08683 11 ft 152 kts 65°
2026-05-07 14:39 41.29171 2.10167 400 ft 198 kts 70°
2026-05-07 14:39 41.29631 2.12129 795 ft 246 kts 79°
2026-05-07 14:39 41.29751 2.14392 1496 ft 246 kts 103°
2026-05-07 14:40 41.29044 2.16412 2959 ft 236 kts 123°
2026-05-07 14:40 41.28050 2.18122 4307 ft 239 kts 137°
2026-05-07 14:40 41.26536 2.19238 5127 ft 263 kts 163°
2026-05-07 14:40 41.24709 2.19747 6088 ft 273 kts 171°
2026-05-07 14:41 41.22815 2.20107 6621 ft 277 kts 172°
2026-05-07 14:41 41.20881 2.20477 6858 ft 277 kts 171°
2026-05-07 14:41 41.18972 2.20888 6960 ft 278 kts 169°
2026-05-07 14:41 41.17074 2.21335 6976 ft 278 kts 169°
2026-05-07 14:42 41.15185 2.21802 7224 ft 281 kts 168°
2026-05-07 14:42 41.13259 2.22287 8082 ft 282 kts 169°
2026-05-07 14:42 41.11336 2.22774 9366 ft 282 kts 169°
2026-05-07 14:42 41.09388 2.23267 10411 ft 291 kts 169°
2026-05-07 14:43 41.07295 2.23795 11002 ft 314 kts 169°
2026-05-07 14:43 41.05095 2.24346 11527 ft 335 kts 169°
2026-05-07 14:43 41.02782 2.24924 12440 ft 342 kts 170°
2026-05-07 14:43 41.00433 2.25512 13493 ft 346 kts 170°
2026-05-07 14:44 40.98058 2.26107 14445 ft 349 kts 170°
2026-05-07 14:44 40.95662 2.26706 15382 ft 352 kts 170°
2026-05-07 14:44 40.93230 2.27312 16256 ft 357 kts 171°
2026-05-07 14:44 40.90777 2.27921 17129 ft 362 kts 171°
2026-05-07 14:45 40.88288 2.28538 18008 ft 366 kts 171°
2026-05-07 14:45 40.85765 2.29164 18632 ft 370 kts 171°
2026-05-07 14:45 40.83237 2.29791 18871 ft 371 kts 171°
2026-05-07 14:45 40.80694 2.30421 18956 ft 371 kts 171°
2026-05-07 14:46 40.78162 2.31048 18960 ft 371 kts 171°
2026-05-07 14:46 40.75628 2.31674 18961 ft 370 kts 171°
2026-05-07 14:46 40.73096 2.32299 18959 ft 370 kts 171°
2026-05-07 14:46 40.70569 2.32923 18959 ft 370 kts 171°
2026-05-07 14:47 40.68028 2.33549 18956 ft 369 kts 171°
2026-05-07 14:47 40.65508 2.34169 18954 ft 369 kts 171°
2026-05-07 14:47 40.62992 2.34803 18951 ft 369 kts 170°
2026-05-07 14:47 40.60490 2.35613 18950 ft 369 kts 167°
2026-05-07 14:48 40.58021 2.36487 18963 ft 369 kts 167°
2026-05-07 14:48 40.55520 2.37364 18952 ft 369 kts 167°
2026-05-07 14:48 40.53042 2.38230 18964 ft 368 kts 167°
2026-05-07 14:48 40.50564 2.39094 18951 ft 368 kts 167°
2026-05-07 14:49 40.48089 2.39956 18952 ft 368 kts 167°
2026-05-07 14:49 40.45616 2.40811 18945 ft 367 kts 169°
2026-05-07 14:49 40.43094 2.41119 18952 ft 364 kts 182°
2026-05-07 14:49 40.40563 2.41076 18949 ft 364 kts 182°
2026-05-07 14:50 40.38032 2.41026 18945 ft 364 kts 182°
2026-05-07 14:50 40.35498 2.40976 18944 ft 364 kts 182°
2026-05-07 14:50 40.32968 2.40928 18949 ft 363 kts 182°
2026-05-07 14:50 40.30468 2.40628 18959 ft 362 kts 195°
2026-05-07 14:51 40.28138 2.39414 18954 ft 362 kts 205°
2026-05-07 14:51 40.25867 2.37969 18947 ft 362 kts 206°
2026-05-07 14:51 40.23609 2.36526 18947 ft 361 kts 206°
2026-05-07 14:51 40.21348 2.35083 18942 ft 362 kts 206°
2026-05-07 14:52 40.19092 2.33648 18942 ft 361 kts 205°
2026-05-07 14:52 40.16822 2.32208 18938 ft 361 kts 205°
2026-05-07 14:52 40.14562 2.30777 18935 ft 361 kts 205°
2026-05-07 14:52 40.12301 2.29348 18933 ft 362 kts 205°
2026-05-07 14:53 40.10411 2.28155 18940 ft 361 kts 205°
2026-05-07 14:53 40.08148 2.26726 18939 ft 362 kts 205°
2026-05-07 14:53 40.05890 2.25282 18928 ft 362 kts 208°
2026-05-07 14:53 40.03735 2.23587 18934 ft 363 kts 211°
2026-05-07 14:54 40.01582 2.21858 18938 ft 363 kts 211°
2026-05-07 14:54 39.99431 2.20128 18930 ft 363 kts 211°
2026-05-07 14:54 39.97286 2.18405 18929 ft 363 kts 211°
2026-05-07 14:54 39.95136 2.16681 18933 ft 363 kts 211°
2026-05-07 14:55 39.92986 2.14959 18927 ft 362 kts 211°
2026-05-07 14:55 39.90847 2.13250 18929 ft 362 kts 211°
2026-05-07 14:55 39.88691 2.11527 18927 ft 363 kts 211°
2026-05-07 14:55 39.86535 2.09806 18927 ft 363 kts 211°
2026-05-07 14:56 39.84384 2.08089 18928 ft 363 kts 211°
2026-05-07 14:56 39.82227 2.06369 18937 ft 363 kts 211°
2026-05-07 14:56 39.80075 2.04654 18932 ft 364 kts 211°
2026-05-07 14:56 39.77912 2.02932 18934 ft 363 kts 211°
2026-05-07 14:57 39.75756 2.01217 18938 ft 364 kts 211°
2026-05-07 14:57 39.73601 1.99503 18933 ft 363 kts 211°
2026-05-07 14:57 39.71440 1.97785 18929 ft 364 kts 211°
2026-05-07 14:57 39.69281 1.96072 18932 ft 364 kts 211°
2026-05-07 14:58 39.67119 1.94356 18934 ft 364 kts 211°
2026-05-07 14:58 39.64963 1.92647 18929 ft 364 kts 211°
2026-05-07 14:58 39.62804 1.90936 18930 ft 364 kts 211°
2026-05-07 14:58 39.60650 1.89231 18929 ft 364 kts 211°
2026-05-07 14:59 39.58483 1.87517 18933 ft 364 kts 211°
2026-05-07 14:59 39.56320 1.85808 18926 ft 364 kts 210°
2026-05-07 14:59 39.54162 1.84103 18931 ft 364 kts 210°
2026-05-07 14:59 39.52003 1.82398 18931 ft 363 kts 210°
2026-05-07 15:00 39.49847 1.80698 18924 ft 363 kts 210°
2026-05-07 15:00 39.47661 1.78974 18936 ft 363 kts 210°
2026-05-07 15:00 39.45530 1.77294 18921 ft 363 kts 210°
2026-05-07 15:00 39.43373 1.75596 18925 ft 363 kts 210°
2026-05-07 15:01 39.41204 1.73890 18926 ft 362 kts 210°
2026-05-07 15:01 39.39036 1.72187 18922 ft 363 kts 210°
2026-05-07 15:01 39.36877 1.70491 18925 ft 363 kts 210°
2026-05-07 15:01 39.34722 1.68800 18933 ft 364 kts 210°
2026-05-07 15:02 39.32559 1.67105 18934 ft 364 kts 210°
2026-05-07 15:02 39.30361 1.65384 18923 ft 364 kts 210°
2026-05-07 15:02 39.28192 1.63685 18920 ft 364 kts 210°
2026-05-07 15:02 39.26055 1.62014 18899 ft 365 kts 210°
2026-05-07 15:03 39.23856 1.60295 18685 ft 365 kts 210°
2026-05-07 15:03 39.22462 1.59206 18538 ft 364 kts 210°
2026-05-07 15:03 39.20302 1.57519 18305 ft 363 kts 210°
2026-05-07 15:03 39.18145 1.55838 18043 ft 362 kts 210°
2026-05-07 15:04 39.16003 1.54168 17676 ft 359 kts 210°
2026-05-07 15:04 39.13902 1.52531 17122 ft 357 kts 210°
2026-05-07 15:04 39.11757 1.50861 16466 ft 355 kts 210°
2026-05-07 15:04 39.09640 1.49214 15839 ft 353 kts 210°
2026-05-07 15:05 39.07550 1.47588 15223 ft 351 kts 210°
2026-05-07 15:05 39.05531 1.45834 14642 ft 350 kts 217°
2026-05-07 15:05 39.03756 1.43716 14061 ft 349 kts 226°
2026-05-07 15:05 39.02236 1.41271 13478 ft 348 kts 232°
2026-05-07 15:06 39.00813 1.38783 12899 ft 345 kts 232°
2026-05-07 15:06 38.99358 1.36270 12291 ft 343 kts 232°
2026-05-07 15:06 38.97941 1.33832 11713 ft 341 kts 231°
2026-05-07 15:06 38.96524 1.31397 11122 ft 339 kts 231°
2026-05-07 15:07 38.95593 1.29797 10875 ft 334 kts 231°
2026-05-07 15:07 38.94231 1.27457 10687 ft 320 kts 231°
2026-05-07 15:07 38.92927 1.25215 10566 ft 306 kts 231°
2026-05-07 15:07 38.91676 1.23066 10316 ft 298 kts 231°
2026-05-07 15:08 38.90435 1.20938 9785 ft 298 kts 232°
2026-05-07 15:08 38.89199 1.18818 9179 ft 294 kts 232°
2026-05-07 15:08 38.88122 1.16596 8579 ft 292 kts 241°
2026-05-07 15:08 38.87178 1.14299 8000 ft 289 kts 241°
2026-05-07 15:09 38.86237 1.12031 7420 ft 287 kts 241°
2026-05-07 15:09 38.85303 1.09791 6957 ft 281 kts 241°
2026-05-07 15:09 38.84408 1.07650 6794 ft 264 kts 241°
2026-05-07 15:09 38.83564 1.05630 6643 ft 249 kts 241°
2026-05-07 15:10 38.82751 1.03690 6524 ft 250 kts 241°
2026-05-07 15:10 38.81915 1.01695 6405 ft 254 kts 241°
2026-05-07 15:10 38.81085 0.99713 6289 ft 252 kts 241°
2026-05-07 15:10 38.80248 0.97718 6172 ft 255 kts 241°
2026-05-07 15:11 38.79363 0.95766 6043 ft 251 kts 233°
2026-05-07 15:11 38.78211 0.94116 5819 ft 247 kts 220°
2026-05-07 15:11 38.76936 0.92637 5504 ft 247 kts 221°
2026-05-07 15:11 38.75652 0.91189 5200 ft 244 kts 211°
2026-05-07 15:12 38.74108 0.90522 5061 ft 230 kts 178°
2026-05-07 15:12 38.72603 0.90978 4834 ft 221 kts 150°
2026-05-07 15:12 38.71269 0.91942 4667 ft 220 kts 141°
2026-05-07 15:12 38.70340 0.93437 4555 ft 218 kts 106°
2026-05-07 15:13 38.70250 0.95348 4424 ft 218 kts 78°
2026-05-07 15:13 38.70718 0.97177 4292 ft 215 kts 66°
2026-05-07 15:13 38.71386 0.98899 4053 ft 217 kts 62°
2026-05-07 15:13 38.72094 1.00587 3906 ft 212 kts 62°
2026-05-07 15:14 38.72766 1.02206 3832 ft 199 kts 63°
2026-05-07 15:14 38.73393 1.03723 3739 ft 187 kts 63°
2026-05-07 15:14 38.73986 1.05155 3583 ft 177 kts 63°
2026-05-07 15:14 38.74565 1.06555 3329 ft 180 kts 63°
2026-05-07 15:15 38.75151 1.07970 3058 ft 179 kts 63°
2026-05-07 15:15 38.75729 1.09367 2972 ft 175 kts 63°
2026-05-07 15:15 38.76314 1.10782 2974 ft 182 kts 63°
2026-05-07 15:15 38.76906 1.12211 2979 ft 181 kts 63°
2026-05-07 15:16 38.77493 1.13627 2987 ft 180 kts 63°
2026-05-07 15:16 38.78085 1.15059 2970 ft 182 kts 63°
2026-05-07 15:16 38.78667 1.16464 2961 ft 173 kts 63°
2026-05-07 15:16 38.79232 1.17829 2969 ft 171 kts 63°
2026-05-07 15:17 38.79781 1.19158 2930 ft 170 kts 63°
2026-05-07 15:17 38.80328 1.20478 2727 ft 162 kts 63°
2026-05-07 15:17 38.80839 1.21710 2487 ft 150 kts 63°
2026-05-07 15:17 38.81305 1.22840 2292 ft 137 kts 63°
2026-05-07 15:18 38.81727 1.23856 2124 ft 121 kts 63°
2026-05-07 15:18 38.82105 1.24776 1967 ft 116 kts 63°
2026-05-07 15:18 38.82484 1.25688 1802 ft 112 kts 63°
2026-05-07 15:18 38.82846 1.26568 1666 ft 113 kts 62°
2026-05-07 15:19 38.83212 1.27454 1499 ft 114 kts 62°
2026-05-07 15:19 38.83588 1.28359 1344 ft 117 kts 63°
2026-05-07 15:19 38.83959 1.29257 1194 ft 116 kts 63°
2026-05-07 15:19 38.84339 1.30178 1034 ft 116 kts 63°
2026-05-07 15:20 38.84714 1.31086 888 ft 116 kts 63°
2026-05-07 15:20 38.85021 1.31822 755 ft 112 kts 65°
2026-05-07 15:20 38.85390 1.32723 617 ft 116 kts 63°
2026-05-07 15:20 38.85780 1.33662 456 ft 118 kts 65°
2026-05-07 15:21 38.86144 1.34531 280 ft 107 kts 65°
2026-05-07 15:21 38.86498 1.35414 116 ft 112 kts 65°
2026-05-07 15:21 38.86861 1.36280 19 ft 106 kts 65°
2026-05-07 15:21 38.87149 1.36997 9 ft 71 kts 62°
2026-05-07 15:22 38.87263 1.37268 7 ft 24 kts 62°
2026-05-07 15:22 38.87382 1.37438 6 ft 28 kts 32°
2026-05-07 15:22 38.87504 1.37541 8 ft 0 kts 31°
2026-05-07 15:23 38.87523 1.37555 8 ft 11 kts 31°
2026-05-07 15:23 38.87611 1.37541 8 ft 17 kts 325°
2026-05-07 15:23 38.87691 1.37416 8 ft 20 kts 236°
2026-05-07 15:24 38.87618 1.37239 8 ft 30 kts 243°
2026-05-07 15:24 38.87565 1.37110 8 ft 8 kts 269°
2026-05-07 15:24 38.87611 1.37065 9 ft 0 kts 331°
2026-05-07 15:24 38.87624 1.37056 8 ft 0 kts 333°